Track RADIO ROSTO now! 10-day predictions RADIO ROSTO is classified as:
1 23439U 94085A 25182.88243337 -.00000032 00000-0 28390-3 0 9994 2 23439 64.8141 149.7392 0145889 69.9930 291.6635 11.27581488256407